Location: Unspecified
(43.4680°N, 87.1740°E)
Time: 05:09:37
(UTC+00:00)

ARIANE 5 R/B - Pass Details

Date: 17 April 2021
Orbit: 749 x 794 km, 98.7° (Epoch: 16 May)

Event Time Altitude Azimuth Distance (km) Brightness Sun altitude
Rises 22:09:34 0° 5° (N) 3,306 6.3 -13.3°
Reaches altitude 10° 22:12:04 10° 358° (N) 2,373 5.4 -12.9°
Maximum altitude 22:16:49 36° 293° (WNW) 1,238 3.3 -12.2°
Enters shadow 22:20:33 15° 233° (SW) 2,012 4.0 -11.6°
